[[{"header":{"parameterUnit":"m.s-1","parameterCategory":1,"la1":30.2991,"la2":30.254,"lo1":-89.0895,"lo2":-89.0444,"dy":0.0017,"dx":0.0017,"nx":28,"ny":28,"refTime":"2024-03-02T09:00:00:Z","depth":0,"parameterNumber":2,"parameterNumberName":"U-component_of_WINDS"},"data":[0,0,0,0,0,0,0,0,0,0,0,0,0,0,0,0,0,0,0,0,0,0,0,0,0,0,0,0,0,0,0,0,0,0,0,0,0,0,0,0,0,0,0,0,0,0,0,0,0,0,0,0,0,0,0,0,0,0,-2.6127,-2.6128,0,-2.6215,-2.6216,-2.6217,-2.6208,-2.6206,-2.6205,-2.6203,-2.6294,-2.6298,-2.6302,0,0,0,0,0,0,0,0,0,0,0,0,0,-2.5955,-2.5958,-2.6127,-2.6128,-2.613,-2.6215,-2.6216,-2.6217,-2.6208,-2.6206,-2.6204,-2.6203,-2.6293,-2.6297,-2.6302,0,0,0,0,0,0,0,0,0,0,0,0,0,-2.6035,-2.5959,-2.6127,-2.6135,-2.6137,-2.6214,-2.6216,-2.6217,-2.6208,-2.6206,-2.6204,-2.6202,-2.6292,-2.6297,-2.6303,-2.6378,0,0,-2.632,-2.6322,0,0,0,0,0,0,0,0,-2.603,-2.6041,-2.6133,-2.6135,-2.6137,-2.6198,-2.6188,-2.6271,-2.6209,-2.6181,-2.6203,-2.6201,-2.6264,-2.6272,-2.6293,-2.6383,-2.6386,-2.632,-2.6323,-2.6326,-2.6327,0,0,0,0,0,0,0,-2.6025,-2.6037,-2.6162,-2.6134,-2.6137,-2.6135,-2.6144,-2.6204,-2.6233,-2.6183,-2.6183,-2.6193,-2.6265,-2.6287,-2.6295,-2.6388,-2.632,-2.6325,-2.6328,-2.633,-2.6545,-2.6547,0,0,0,0,0,0,-2.6017,-2.6033,-2.6159,-2.6165,-2.6077,-2.614,-2.615,-2.6181,-2.6232,-2.6238,-2.6195,-2.6192,-2.6279,-2.6288,-2.6298,-2.639,-2.6326,-2.6331,-2.6334,-2.6543,-2.6546,-2.6548,0,0,0,0,0,0,-2.6013,-2.6028,-2.6156,-2.6099,-2.6115,-2.6145,-2.6179,-2.6183,-2.6206,-2.6241,-2.6247,-2.6213,-2.6278,-2.629,-2.6358,-2.6393,-2.6333,-2.6338,-2.654,-2.6544,-2.6547,-2.6575,0,0,0,0,0,0,-2.6008,-2.6027,-2.6055,-2.6099,-2.6118,-2.6214,-2.6182,-2.6187,-2.6215,-2.6213,-2.6259,-2.6265,-2.6277,-2.635,-2.6364,-2.64,-2.6343,-2.6537,-2.6542,-2.6546,-2.6571,-2.6579,-2.6586,0,0,0,0,0,-2.6002,-2.606,-2.6057,-2.6072,-2.6154,-2.6216,-2.6227,-2.6239,-2.6218,-2.6247,-2.627,-2.6263,-2.6388,-2.6357,-2.6373,-2.6411,-2.6535,-2.654,-2.6545,-2.6567,-2.6577,-2.6585,0,0,0,0,0,0,-2.6019,-2.6066,-2.6063,-2.6136,-2.6172,-2.6214,-2.6251,-2.6249,-2.6292,-2.6288,-2.6302,-2.6312,-2.6381,-2.6403,-2.6369,-2.6487,-2.6458,-2.6467,-2.647,-2.6479,-2.6487,-2.6479,-2.6347,0,0,0,0,0,-2.6032,-2.6078,-2.6116,-2.6177,-2.6195,-2.622,-2.6248,-2.6255,-2.6292,-2.6308,-2.6336,-2.6373,-2.6421,-2.6452,-2.6497,-2.6575,-2.6585,-2.6609,-2.6616,-2.6622,-2.6629,-2.6672,-2.6683,-2.6566,-2.6566,-2.6566,0,0,-2.6057,-2.6088,-2.6117,-2.6181,-2.621,-2.6258,-2.6233,-2.6285,-2.6321,-2.6316,-2.6381,-2.6404,-2.6447,-2.652,-2.6554,-2.654,-2.6664,-2.6629,-2.6633,-2.6637,-2.6678,-2.6689,-2.6699,-2.6569,-2.6569,-2.6568,0,0,-2.6128,-2.6157,-2.6211,-2.624,-2.6284,-2.6301,-2.6314,-2.6357,-2.6371,-2.6437,-2.6435,-2.6479,-2.656,-2.6591,-2.6617,-2.6702,-2.6698,-2.6717,-2.6755,-2.6797,-2.6806,-2.6814,-2.6844,-2.6855,-2.6724,-2.6724,-2.6724,0,-2.6155,-2.6226,-2.6239,-2.6291,-2.632,-2.6318,-2.6374,-2.6402,-2.6459,-2.6479,-2.6463,-2.6566,-2.6595,-2.6675,-2.6696,-2.6718,-2.6734,-2.6711,-2.6804,-2.6812,-2.682,-2.6849,-2.686,-2.6726,-2.6726,-2.6726,-2.6726,0,-2.6256,-2.6306,-2.6345,-2.6399,-2.6433,-2.6486,-2.6508,-2.6541,-2.6545,-2.6564,-2.6632,-2.6667,-2.672,-2.674,-2.6745,-2.6822,-2.6812,-2.68,-2.6771,-2.6833,-2.686,-2.6871,-2.6729,-2.6728,-2.6728,-2.6727,0,0,-2.6338,-2.6401,-2.6414,-2.6439,-2.6488,-2.6528,-2.6582,-2.6634,-2.6661,-2.6701,-2.6747,-2.6817,-2.6806,-2.6836,-2.6845,-2.6882,-2.6947,-2.6866,-2.6867,-2.6879,-2.7034,-2.7042,-2.7054,-2.6945,-2.6947,-2.6949,-2.703,0,-2.6414,-2.6508,-2.6522,-2.6606,-2.6653,-2.6653,-2.6701,-2.6736,-2.6756,-2.6799,-2.6821,-2.687,-2.6852,-2.687,-2.6907,-2.6931,-2.6978,-2.6926,-2.6988,-2.699,-2.6975,-2.7069,-2.7077,-2.7151,-2.7041,-2.7043,-2.7044,0,-2.6513,-2.6556,-2.6644,-2.6688,-2.6708,-2.675,-2.6799,-2.684,-2.6881,-2.6893,-2.6927,-2.6932,-2.6989,-2.696,-2.7039,-2.7003,-2.703,-2.7046,-2.7049,-2.7054,-2.7019,-2.7075,-2.7176,-2.7186,-2.7061,-2.706,-2.7059,0,-2.6563,-2.6643,-2.6706,-2.6728,-2.678,-2.681,-2.6834,-2.6873,-2.6903,-2.6947,-2.6967,-2.7017,-2.7043,-2.7082,-2.7101,-2.7078,-2.7179,-2.7151,-2.719,-2.719,-2.721,-2.7208,-2.7315,-2.723,-2.723,-2.7229,-2.7229,0,-2.6645,-2.6699,-2.6729,-2.6768,-2.6829,-2.6845,-2.6906,-2.6928,-2.6964,-2.7007,-2.7012,-2.7053,-2.7075,-2.712,-2.7136,-2.7199,-2.7212,-2.7223,-2.7226,-2.7221,-2.722,-2.7238,-2.7233,-2.7232,-2.7232,-2.7231,-2.7231,0,-2.671,-2.6732,-2.6801,-2.6846,-2.6859,-2.6901,-2.694,-2.6978,-2.6998,-2.7054,-2.7068,-2.71,-2.7153,-2.7176,-2.7241,-2.7252,-2.7324,-2.7324,-2.731,-2.731,-2.7348,-2.7344,-2.7469,-2.7486,-2.7391,-2.7392,-2.7393,0,-2.6759,-2.6801,-2.685,-2.688,-2.6904,-2.6952,-2.6983,-2.7002,-2.7034,-2.7086,-2.7118,-2.7171,-2.7214,-2.73,-2.7329,-2.738,-2.738,-2.7421,-2.7388,-2.7382,-2.738,-2.7376,-2.7381,-2.7426,-2.7427,-2.7428,-2.7428,0,-2.6845,-2.6854,-2.6899,-2.6948,-2.6985,-2.7025,-2.7064,-2.7088,-2.7113,-2.715,-2.7204,-2.7238,-2.7305,-2.7358,-2.7411,-2.7436,-2.7437,-2.7439,-2.7451,-2.7446,-2.7435,-2.7441,-2.7325,-2.7435,-2.7435,-2.7434,-2.7434,-2.7434,-2.6903,-2.694,-2.6981,-2.7031,-2.7062,-2.7099,-2.7137,-2.7162,-2.7207,-2.7263,-2.7272,-2.733,-2.7372,-2.7443,-2.7471,-2.7517,-2.7507,-2.7524,-2.7528,-2.7531,-2.7533,-2.7429,-2.7527,-2.7527,-2.7526,-2.7526,-2.7526,0,-2.6988,-2.7015,-2.7061,-2.7115,-2.7154,-2.7152,-2.7195,-2.7229,-2.7279,-2.7318,-2.7361,-2.7424,-2.7476,-2.751,-2.7563,-2.7594,-2.7595,-2.7607,-2.7604,-2.761,-2.754,-2.7524,-2.7605,-2.7605,-2.7605,-2.7605,-2.7605,-2.7605,-2.7037,-2.7099,-2.7114,-2.7193,-2.7219,-2.7276,-2.7301,-2.7335,-2.7366,-2.7436,-2.7479,-2.7501,-2.7538,-2.7594,-2.7642,-2.7651,-2.7669,-2.7681,-2.7689,-2.7623,-2.7615,-2.7607,-2.7592,-2.7686,-2.7686,-2.7756,-2.7756,-2.7757]},{"header":{"parameterUnit":"m.s-1","parameterCategory":1,"la1":30.2991,"la2":30.254,"lo1":-89.0895,"lo2":-89.0444,"dy":0.0017,"dx":0.0017,"nx":28,"ny":28,"refTime":"2024-03-02T09:00:00:Z","depth":0,"parameterNumber":3,"parameterNumberName":"V-component_of_WINDS"},"data":[0,0,0,0,0,0,0,0,0,0,0,0,0,0,0,0,0,0,0,0,0,0,0,0,0,0,0,0,0,0,0,0,0,0,0,0,0,0,0,0,0,0,0,0,0,0,0,0,0,0,0,0,0,0,0,0,0,0,1.2014,1.2014,0,1.2016,1.2016,1.2016,1.203,1.203,1.2031,1.2031,1.2031,1.2031,1.2031,0,0,0,0,0,0,0,0,0,0,0,0,0,1.202,1.202,1.2014,1.2014,1.2014,1.2016,1.2016,1.2016,1.203,1.203,1.2031,1.2031,1.2032,1.2031,1.2031,0,0,0,0,0,0,0,0,0,0,0,0,0,1.2019,1.202,1.2014,1.2021,1.2022,1.2016,1.2016,1.2016,1.203,1.203,1.2031,1.2031,1.2032,1.2031,1.2031,1.2018,0,0,1.2029,1.2029,0,0,0,0,0,0,0,0,1.2019,1.2019,1.202,1.2021,1.2021,1.2023,1.2019,1.2017,1.203,1.2027,1.2031,1.2032,1.2028,1.2028,1.2027,1.2018,1.2018,1.2029,1.2029,1.2029,1.2029,0,0,0,0,0,0,0,1.2019,1.2019,1.2015,1.202,1.2021,1.2024,1.2024,1.2018,1.2025,1.2027,1.2028,1.2028,1.2029,1.2028,1.2027,1.2018,1.2029,1.2029,1.2029,1.2029,1.1997,1.1996,0,0,0,0,0,0,1.2019,1.2019,1.2015,1.2015,1.2022,1.2023,1.2024,1.2022,1.2025,1.2026,1.2028,1.2029,1.2028,1.2028,1.2028,1.2012,1.2029,1.2028,1.2028,1.1998,1.1997,1.1996,0,0,0,0,0,0,1.2019,1.2018,1.2015,1.2017,1.2017,1.2023,1.2021,1.2022,1.2021,1.2025,1.2026,1.2026,1.2029,1.2028,1.202,1.2012,1.2028,1.2028,1.1998,1.1997,1.1997,1.1981,0,0,0,0,0,0,1.2019,1.2018,1.2014,1.2017,1.2017,1.2008,1.202,1.2022,1.202,1.2022,1.2024,1.2024,1.2029,1.2021,1.202,1.2012,1.2028,1.1999,1.1998,1.1997,1.1982,1.1979,1.1977,0,0,0,0,0,1.2019,1.2009,1.2013,1.2013,1.2012,1.2007,1.2007,1.2013,1.202,1.2015,1.2018,1.2024,1.2013,1.202,1.2019,1.201,1.1999,1.1998,1.1997,1.1983,1.198,1.1977,0,0,0,0,0,0,1.2004,1.201,1.2014,1.2005,1.2006,1.201,1.2004,1.201,1.2008,1.2009,1.2016,1.2017,1.2007,1.2008,1.2015,1.1998,1.2007,1.2006,1.1997,1.1994,1.1992,1.1991,1.2027,0,0,0,0,0,1.2,1.1996,1.2001,1.1993,1.1993,1.1998,1.1997,1.2001,1.2002,1.2002,1.2004,1.2003,1.2,1.1997,1.1994,1.1982,1.1982,1.1976,1.1974,1.1972,1.197,1.1963,1.196,1.1992,1.1992,1.1992,0,0,1.1991,1.1993,1.1991,1.199,1.1991,1.1986,1.1998,1.1993,1.199,1.2001,1.1993,1.1995,1.1995,1.1984,1.198,1.1985,1.1961,1.197,1.1969,1.1968,1.1961,1.1958,1.1955,1.1991,1.1991,1.1991,0,0,1.1972,1.1974,1.1967,1.1967,1.1969,1.1972,1.197,1.1973,1.1975,1.1968,1.1975,1.1971,1.1965,1.1964,1.1963,1.1944,1.195,1.1943,1.193,1.1923,1.192,1.1918,1.191,1.1907,1.1941,1.1941,1.1941,0,1.196,1.1954,1.1962,1.1956,1.1955,1.1966,1.1958,1.1958,1.1958,1.1956,1.1962,1.1954,1.1955,1.1944,1.194,1.1939,1.1936,1.1942,1.192,1.1918,1.1916,1.1908,1.1905,1.194,1.194,1.194,1.1941,0,1.1939,1.1935,1.1929,1.1929,1.1928,1.1921,1.1927,1.1924,1.1929,1.1932,1.1923,1.1925,1.1922,1.192,1.1924,1.1909,1.1912,1.1919,1.1929,1.1912,1.1905,1.1902,1.1939,1.1939,1.194,1.194,0,0,1.1911,1.1915,1.1913,1.1912,1.1915,1.1911,1.1905,1.1902,1.1899,1.1899,1.1893,1.1887,1.1893,1.1892,1.1897,1.189,1.1874,1.1898,1.1898,1.1892,1.1856,1.185,1.1846,1.1878,1.1877,1.1877,1.1855,0,1.1892,1.1881,1.1888,1.1876,1.1872,1.1881,1.1876,1.1876,1.1878,1.1874,1.1877,1.1872,1.1881,1.188,1.1875,1.1877,1.1866,1.1879,1.1871,1.1871,1.187,1.1843,1.1837,1.1817,1.1853,1.1852,1.1852,0,1.1868,1.1867,1.1855,1.1857,1.1856,1.1851,1.1848,1.1845,1.1845,1.1847,1.1846,1.1851,1.1844,1.1855,1.1844,1.1852,1.185,1.185,1.1849,1.1848,1.1859,1.184,1.181,1.1807,1.1848,1.1848,1.1848,0,1.1847,1.1843,1.1835,1.1835,1.1837,1.1833,1.1834,1.1835,1.1833,1.1831,1.1829,1.1826,1.1824,1.1821,1.1826,1.1833,1.1814,1.1825,1.1814,1.1814,1.1809,1.1809,1.1778,1.1809,1.1809,1.1809,1.1809,0,1.1825,1.1817,1.1825,1.182,1.1811,1.1818,1.1809,1.1811,1.1811,1.1806,1.1814,1.1809,1.1816,1.1811,1.1814,1.1804,1.1804,1.1804,1.1805,1.1803,1.1803,1.18,1.1801,1.1809,1.1809,1.1809,1.1809,0,1.18,1.1805,1.1797,1.18,1.1801,1.1794,1.1796,1.1791,1.1795,1.1788,1.1786,1.1791,1.1785,1.179,1.1784,1.1787,1.1773,1.1777,1.1773,1.1774,1.1762,1.1763,1.1728,1.1723,1.1758,1.1758,1.1758,0,1.1785,1.1779,1.1781,1.1779,1.1779,1.1775,1.1773,1.178,1.1777,1.1776,1.1771,1.1766,1.1763,1.1754,1.1756,1.1751,1.1754,1.1742,1.1753,1.1751,1.1752,1.1752,1.1751,1.1739,1.1739,1.1739,1.1738,0,1.1757,1.176,1.1757,1.1755,1.1752,1.175,1.1749,1.1747,1.1753,1.175,1.1745,1.1742,1.1737,1.1731,1.1728,1.1728,1.1733,1.1735,1.1732,1.1729,1.1727,1.1727,1.1766,1.1735,1.1736,1.1736,1.1736,1.1736,1.1736,1.173,1.1731,1.1728,1.1728,1.1726,1.1722,1.1724,1.172,1.1716,1.1721,1.1714,1.1713,1.1709,1.1708,1.1702,1.1707,1.1703,1.1702,1.1701,1.1699,1.1729,1.1702,1.1702,1.1702,1.1702,1.1702,0,1.1707,1.1709,1.1705,1.1703,1.17,1.1707,1.1706,1.1702,1.1697,1.1696,1.1693,1.1686,1.1681,1.1683,1.1678,1.1673,1.1675,1.1671,1.1671,1.167,1.1695,1.1698,1.1669,1.1669,1.1669,1.1669,1.1669,1.1669,1.1692,1.1684,1.1687,1.1678,1.1679,1.1673,1.1671,1.167,1.1669,1.1661,1.1658,1.1659,1.1659,1.1654,1.1649,1.165,1.1647,1.1642,1.1643,1.1666,1.1669,1.1672,1.1674,1.1641,1.1641,1.1619,1.1618,1.1618]}]]